LANDSAT 2

Satellite information

Favourite Embed

Satellite Type and Status

PAYLOADIN ORBIT

Key statistics

Satellite LANDSAT 2 at a glance.

Uptime

18533

Days in orbit

Revolutions

≈ 14.0

Per day

Orbit

SSO

Sun Synchronous Orbit

Inclination

99.0

Latest

Satellite identification and parameters

Extended collection of information and parameters for LANDSAT 2.

Object identification

Identified? True

Debris? False

Object name: LANDSAT 2

International designator: 1975-004A

Object number (NORAD): 7615

Object ID (CCSDS): 7615

Country: UNITED STATES OF AMERICA (US)

Current information (Y/N): Y

RCS size: LARGE

Orbital parameters

Period: 103.082 minutes

Inclination: 99.0039 deg

SMA: 7282.546 km

Apoapsis: 909.998 km

Periapsis: 898.824 km

RAAN: 246.5206 deg

Eccentricy: 0.00076719

Argument of periapsis: 251.5906 deg

Mean anomaly: 108.4423 deg

Mean motion: 13.96940585 rev/day

Mean motion (dot): 0.0000007 rev/day2

B* drag term: 0.000081605156 1/REarth

Two-line elements (TLE)

Creation date: Oct. 19, 2025, 2:20 a.m.

Reference frame: TEME

Reference center: EARTH

Epoch: Oct. 18, 2025, 8:41 p.m. UTC

TLE line 0: 0 LANDSAT 2

TLE line 1: 1 07615U 75004A 25291.86212878 .00000070 00000-0 81605-4 0 9997

TLE line 2: 2 07615 99.0039 246.5206 0007672 251.5906 108.4423 13.96940585585433

Live tracking on map

Real-time ground track for satellite LANDSAT 2.

In-orbit conjunctions

A list of the most updated potential collisions computed for object LANDSAT 2.

Target Orbit TCA Probability of collision Miss distance Type
FENGYUN 1C DEB SSO 2025-09-11 00:37:42 0.0001940594 885.0 (m) DEBRIS
METEOR 2-17 DEB LEO 2025-04-01 15:39:31 0.0002798596 53.0 (m) DEBRIS
NOAA 16 DEB SSO 2025-02-19 05:12:05 0.0001946809 821.0 (m) DEBRIS
COSMOS 1275 DEB LEO 2024-10-26 08:39:40 0.0003655361 139.0 (m) DEBRIS
FENGYUN 1C DEB SSO 2024-10-18 04:39:31 0.0003937215 116.0 (m) DEBRIS

Associated space launch

Earth observation satellite

LANDSAT 2 was lifted into orbit during the mission ‘Delta 2910 | Landsat 2’, on board a Delta 2910 space rocket.

The launch took place on Jan. 22, 1975, 5:55 p.m. from Space Launch Complex 2W.

For more information about the launch, click the button.

Launch to space Delta 2910 | Landsat 2
Delta 2910 | Landsat 2

Agency: N/A

Status: Launch Successful

Launch date: Jan. 22, 1975, 5:55 p.m. UTC

Rocket: Delta 2910

Launch pad: Space Launch Complex 2W

Location: Vandenberg SFB, CA, USA

...

Latest news about this satellite

There are no fresh news available about this satellite. Check back as we update our databases every day.


Newsletter sign-up

Weekly statistics, charts and insights to help you stay on top of the space industry.